Radiation Dose at Monitoring Post of Fukushima Daini Nuclear Power Station
Date,Time,MP-1(microSv/h),MP-2(microSv/h),MP-3(microSv/h),MP-4(microSv/h),MP-5(microSv/h),MP-6(microSv/h),MP-7(microSv/h),Wind Direction,Wind Velocity(m/s),Rain
2023/06/24,00:00,0.142,0.130,0.205,0.195,0.208,0.114,0.074,south-southwest,1.7,Yes
2023/06/24,00:10,0.142,0.131,0.204,0.198,0.207,0.116,0.076,south-southwest,1.7,Yes
2023/06/24,00:20,0.143,0.131,0.207,0.197,0.210,0.115,0.076,west,1.5,Yes
2023/06/24,00:30,0.142,0.130,0.205,0.198,0.206,0.115,0.077,west-southwest,1.4,Yes
2023/06/24,00:40,0.143,0.131,0.205,0.198,0.209,0.115,0.076,west,1.9,Yes
2023/06/24,00:50,0.143,0.130,0.205,0.197,0.209,0.116,0.076,west,1.9,Yes
2023/06/24,01:00,0.142,0.132,0.206,0.199,0.208,0.116,0.076,west-northwest,1.4,Yes
2023/06/24,01:10,0.145,0.132,0.206,0.197,0.209,0.116,0.077,northwest,0.9,Yes
2023/06/24,01:20,0.144,0.133,0.205,0.200,0.207,0.116,0.076,west-northwest,0.8,Yes
2023/06/24,01:30,0.144,0.131,0.206,0.196,0.210,0.116,0.075,north-northwest,0.9,Yes
2023/06/24,01:40,0.143,0.132,0.205,0.198,0.208,0.115,0.075,north,0.8,Yes
2023/06/24,01:50,0.142,0.131,0.206,0.198,0.209,0.115,0.076,north,0.6,Yes
2023/06/24,02:00,0.144,0.132,0.204,0.197,0.209,0.116,0.076,-,CALM,Yes
2023/06/24,02:10,0.143,0.131,0.206,0.199,0.206,0.114,0.075,-,CALM,Yes
2023/06/24,02:20,0.143,0.131,0.205,0.197,0.209,0.115,0.076,-,CALM,No
2023/06/24,02:30,0.142,0.131,0.204,0.198,0.206,0.115,0.075,-,CALM,No
2023/06/24,02:40,0.143,0.130,0.205,0.195,0.208,0.114,0.075,east-northeast,0.6,No
2023/06/24,02:50,0.143,0.131,0.205,0.196,0.207,0.115,0.075,east-northeast,0.6,No
2023/06/24,03:00,0.141,0.130,0.204,0.196,0.206,0.114,0.074,-,CALM,No
2023/06/24,03:10,0.143,0.131,0.203,0.197,0.209,0.113,0.075,-,CALM,No
2023/06/24,03:20,0.142,0.130,0.205,0.197,0.206,0.114,0.074,-,CALM,No
2023/06/24,03:30,0.142,0.132,0.204,0.196,0.209,0.113,0.075,-,CALM,No
2023/06/24,03:40,0.142,0.130,0.204,0.197,0.206,0.115,0.074,-,CALM,No
2023/06/24,03:50,0.142,0.130,0.203,0.195,0.208,0.114,0.075,north-northwest,0.6,No
2023/06/24,04:00,0.143,0.130,0.205,0.197,0.207,0.114,0.074,-,CALM,No
2023/06/24,04:10,0.142,0.130,0.204,0.195,0.207,0.114,0.074,north,0.7,No
2023/06/24,04:20,0.143,0.130,0.204,0.198,0.207,0.115,0.074,-,CALM,No
2023/06/24,04:30,0.142,0.131,0.202,0.195,0.206,0.114,0.075,-,CALM,No
2023/06/24,04:40,0.142,0.131,0.204,0.197,0.209,0.114,0.075,-,CALM,No
2023/06/24,04:50,0.142,0.131,0.202,0.196,0.206,0.114,0.074,-,CALM,No
2023/06/24,05:00,0.143,0.130,0.205,0.197,0.208,0.113,0.074,-,CALM,No
2023/06/24,05:10,0.143,0.132,0.202,0.196,0.206,0.114,0.075,-,CALM,No
2023/06/24,05:20,0.141,0.130,0.204,0.195,0.207,0.114,0.074,-,CALM,Yes
2023/06/24,05:30,0.143,0.131,0.203,0.197,0.208,0.113,0.074,northeast,0.7,No
2023/06/24,05:40,0.142,0.131,0.205,0.196,0.206,0.114,0.075,-,CALM,No
2023/06/24,05:50,0.143,0.130,0.204,0.197,0.209,0.114,0.075,-,CALM,No
2023/06/24,06:00,0.143,0.131,0.205,0.196,0.207,0.114,0.075,north-northeast,1.0,No
2023/06/24,06:10,0.142,0.131,0.205,0.198,0.206,0.114,0.075,north-northeast,1.5,No
2023/06/24,06:20,0.144,0.131,0.204,0.197,0.209,0.115,0.075,north,1.4,No
2023/06/24,06:30,0.143,0.131,0.205,0.196,0.208,0.116,0.075,northwest,2.6,No
2023/06/24,06:40,0.143,0.130,0.205,0.198,0.207,0.114,0.076,northwest,1.2,No
2023/06/24,06:50,0.144,0.132,0.203,0.198,0.210,0.115,0.076,north-northwest,0.6,No
2023/06/24,07:00,0.142,0.131,0.205,0.196,0.208,0.115,0.075,north,1.2,No
2023/06/24,07:10,0.143,0.130,0.203,0.198,0.206,0.114,0.075,north-northeast,0.8,No
2023/06/24,07:20,0.143,0.131,0.203,0.195,0.208,0.113,0.075,northeast,1.0,No
2023/06/24,07:30,0.141,0.130,0.204,0.194,0.207,0.114,0.074,north-northeast,1.1,No
2023/06/24,07:40,0.143,0.128,0.201,0.197,0.204,0.113,0.073,northeast,0.9,No
2023/06/24,07:50,0.141,0.130,0.203,0.194,0.207,0.113,0.073,-,CALM,No
2023/06/24,08:00,0.141,0.130,0.202,0.192,0.206,0.114,0.074,east-northeast,0.8,No
2023/06/24,08:10,0.142,0.128,0.202,0.196,0.204,0.112,0.073,north-northeast,0.8,No
2023/06/24,08:20,0.141,0.130,0.201,0.195,0.204,0.112,0.073,east-northeast,0.9,No
2023/06/24,08:30,0.139,0.129,0.203,0.194,0.207,0.113,0.074,northeast,1.3,Yes
2023/06/24,08:40,0.142,0.128,0.203,0.194,0.206,0.113,0.073,northeast,1.5,No
2023/06/24,08:50,0.141,0.129,0.201,0.196,0.205,0.112,0.073,east,1.1,Yes
2023/06/24,09:00,0.140,0.130,0.201,0.195,0.204,0.114,0.073,-,CALM,Yes
2023/06/24,09:10,0.140,0.129,0.204,0.193,0.207,0.113,0.073,northeast,0.6,No
2023/06/24,09:20,0.143,0.127,0.202,0.194,0.207,0.112,0.073,east-northeast,1.2,No
2023/06/24,09:30,0.142,0.130,0.202,0.194,0.204,0.113,0.072,east-southeast,1.1,No
2023/06/24,09:40,0.140,0.130,0.201,0.195,0.204,0.114,0.074,east,0.9,No
2023/06/24,09:50,0.140,0.129,0.204,0.194,0.204,0.113,0.074,east-northeast,0.8,No
2023/06/24,10:00,0.142,0.128,0.203,0.194,0.205,0.113,0.074,east-northeast,0.9,No
2023/06/24,10:10,0.141,0.129,0.203,0.192,0.208,0.113,0.073,east,1.1,No
2023/06/24,10:20,0.141,0.130,0.201,0.193,0.207,0.113,0.073,east,1.0,No
2023/06/24,10:30,0.141,0.129,0.201,0.194,0.207,0.112,0.073,south-southeast,0.7,No
2023/06/24,10:40,0.142,0.130,0.200,0.194,0.206,0.112,0.073,east,0.9,No
2023/06/24,10:50,0.142,0.128,0.202,0.197,0.205,0.112,0.074,east-southeast,1.0,No
2023/06/24,11:00,0.141,0.128,0.205,0.195,0.204,0.113,0.074,east-northeast,1.6,No
2023/06/24,11:10,0.139,0.129,0.205,0.196,0.205,0.113,0.073,east-southeast,1.3,No
2023/06/24,11:20,0.139,0.129,0.204,0.194,0.205,0.112,0.072,-,CALM,No
2023/06/24,11:30,0.140,0.129,0.202,0.194,0.205,0.113,0.073,east-northeast,1.6,No
2023/06/24,11:40,0.140,0.130,0.203,0.195,0.205,0.114,0.074,east,2.3,No
2023/06/24,11:50,0.142,0.131,0.203,0.193,0.206,0.113,0.074,east,1.8,No
2023/06/24,12:00,0.141,0.129,0.202,0.194,0.206,0.113,0.073,east,2.3,No
2023/06/24,12:10,0.141,0.129,0.202,0.193,0.208,0.112,0.073,east,1.9,No
2023/06/24,12:20,0.140,0.129,0.202,0.194,0.210,0.113,0.072,east,1.6,No
2023/06/24,12:30,0.141,0.129,0.202,0.195,0.210,0.113,0.073,east,1.9,No
2023/06/24,12:40,0.140,0.129,0.202,0.195,0.208,0.114,0.073,east,2.2,No
2023/06/24,12:50,0.141,0.129,0.203,0.195,0.206,0.113,0.073,east-southeast,2.1,No
2023/06/24,13:00,0.140,0.129,0.203,0.195,0.206,0.112,0.073,east-southeast,2.2,No
2023/06/24,13:10,0.141,0.129,0.203,0.194,0.207,0.113,0.072,east-southeast,1.9,No
2023/06/24,13:20,0.140,0.129,0.203,0.195,0.206,0.112,0.073,southeast,2.3,No
2023/06/24,13:30,0.140,0.129,0.202,0.195,0.206,0.112,0.072,southeast,2.6,No
2023/06/24,13:40,0.141,0.129,0.203,0.194,0.206,0.114,0.073,south-southeast,2.0,No
2023/06/24,13:50,0.140,0.129,0.203,0.195,0.206,0.112,0.073,south-southeast,2.7,No
2023/06/24,14:00,0.140,0.131,0.203,0.194,0.206,0.114,0.073,south-southeast,3.9,No
2023/06/24,14:10,0.142,0.131,0.207,0.194,0.206,0.114,0.073,south-southeast,3.9,No
2023/06/24,14:20,0.141,0.131,0.207,0.195,0.205,0.113,0.072,south-southeast,4.1,No
2023/06/24,14:30,0.140,0.130,0.205,0.194,0.206,0.114,0.073,south,3.2,No
2023/06/24,14:40,0.141,0.131,0.204,0.195,0.207,0.113,0.074,south,3.4,No
2023/06/24,14:50,0.140,0.130,0.204,0.195,0.206,0.114,0.073,south,3.4,No
2023/06/24,15:00,0.140,0.129,0.204,0.195,0.206,0.113,0.074,south-southeast,2.8,No
2023/06/24,15:10,0.140,0.129,0.203,0.196,0.206,0.114,0.074,south-southeast,4.1,No
2023/06/24,15:20,0.142,0.130,0.203,0.199,0.205,0.114,0.073,south-southeast,4.6,No
2023/06/24,15:30,0.143,0.131,0.203,0.198,0.205,0.114,0.073,south-southeast,5.5,No
2023/06/24,15:40,0.143,0.130,0.204,0.199,0.206,0.113,0.073,south-southeast,5.2,No
2023/06/24,15:50,0.143,0.130,0.207,0.196,0.206,0.114,0.074,south,4.3,No
2023/06/24,16:00,0.141,0.129,0.206,0.195,0.205,0.113,0.074,south-southeast,6.1,No
2023/06/24,16:10,0.141,0.129,0.204,0.196,0.207,0.113,0.074,south-southeast,5.2,No
2023/06/24,16:20,0.140,0.130,0.204,0.198,0.210,0.113,0.073,south-southeast,5.0,No
2023/06/24,16:30,0.141,0.131,0.204,0.197,0.209,0.113,0.073,south-southeast,3.9,No
2023/06/24,16:40,0.143,0.130,0.205,0.196,0.209,0.113,0.074,south-southeast,4.4,No
2023/06/24,16:50,0.142,0.129,0.205,0.197,0.207,0.114,0.073,south,4.1,No
2023/06/24,17:00,0.141,0.131,0.204,0.198,0.205,0.114,0.074,south,3.4,No
2023/06/24,17:10,0.141,0.131,0.205,0.196,0.209,0.114,0.073,south,3.6,No
2023/06/24,17:20,0.144,0.130,0.206,0.196,0.209,0.114,0.073,south,2.6,No
2023/06/24,17:30,0.142,0.129,0.204,0.198,0.206,0.114,0.073,south-southeast,3.2,Yes
2023/06/24,17:40,0.142,0.131,0.202,0.198,0.208,0.114,0.073,south-southeast,3.8,Yes
2023/06/24,17:50,0.141,0.131,0.206,0.197,0.209,0.113,0.074,south-southeast,3.6,Yes
2023/06/24,18:00,0.143,0.129,0.206,0.198,0.207,0.114,0.074,south-southeast,4.7,Yes
2023/06/24,18:10,0.141,0.131,0.204,0.198,0.206,0.114,0.073,south-southeast,4.0,No
2023/06/24,18:20,0.141,0.131,0.206,0.197,0.209,0.113,0.074,south-southeast,4.1,No
2023/06/24,18:30,0.143,0.129,0.205,0.197,0.209,0.113,0.073,south,3.5,No
2023/06/24,18:40,0.142,0.131,0.205,0.197,0.207,0.113,0.073,south,4.0,No
2023/06/24,18:50,0.141,0.131,0.206,0.197,0.208,0.114,0.074,south,4.1,No
2023/06/24,19:00,0.143,0.129,0.205,0.197,0.209,0.114,0.073,south,3.6,Yes
2023/06/24,19:10,0.144,0.130,0.204,0.199,0.207,0.113,0.074,south,3.8,No
2023/06/24,19:20,0.142,0.130,0.207,0.197,0.207,0.113,0.073,south,3.1,Yes
2023/06/24,19:30,0.144,0.131,0.206,0.198,0.209,0.114,0.074,south-southeast,4.2,Yes
2023/06/24,19:40,0.143,0.132,0.207,0.199,0.208,0.115,0.074,south-southeast,3.1,Yes
2023/06/24,19:50,0.142,0.131,0.207,0.197,0.208,0.114,0.075,south,3.0,No
2023/06/24,20:00,0.144,0.131,0.206,0.199,0.209,0.115,0.074,south-southwest,2.8,Yes
2023/06/24,20:10,0.143,0.132,0.207,0.197,0.207,0.115,0.076,south,2.1,Yes
2023/06/24,20:20,0.143,0.130,0.206,0.197,0.210,0.116,0.077,south,1.9,Yes
2023/06/24,20:30,0.144,0.132,0.206,0.199,0.209,0.117,0.076,south,2.2,Yes
2023/06/24,20:40,0.143,0.131,0.206,0.197,0.208,0.116,0.077,south,1.8,No
2023/06/24,20:50,0.143,0.131,0.205,0.199,0.211,0.115,0.076,south,2.2,No
2023/06/24,21:00,0.143,0.131,0.207,0.199,0.208,0.115,0.075,south-southwest,2.1,No
2023/06/24,21:10,0.142,0.130,0.205,0.196,0.209,0.114,0.075,south-southwest,1.9,No
2023/06/24,21:20,0.144,0.132,0.206,0.200,0.208,0.114,0.076,southwest,0.8,No
2023/06/24,21:30,0.144,0.131,0.205,0.196,0.207,0.115,0.075,west-southwest,1.0,No
2023/06/24,21:40,0.143,0.132,0.206,0.198,0.209,0.114,0.075,northwest,1.1,No
2023/06/24,21:50,0.143,0.130,0.206,0.197,0.210,0.115,0.075,-,CALM,No
2023/06/24,22:00,0.142,0.131,0.205,0.198,0.208,0.115,0.074,-,CALM,No
2023/06/24,22:10,0.143,0.130,0.206,0.199,0.210,0.114,0.074,-,CALM,No
2023/06/24,22:20,0.143,0.131,0.205,0.196,0.208,0.114,0.074,-,CALM,No
2023/06/24,22:30,0.144,0.131,0.207,0.200,0.208,0.114,0.075,-,CALM,No
2023/06/24,22:40,0.143,0.131,0.205,0.198,0.208,0.116,0.075,-,CALM,No
2023/06/24,22:50,0.143,0.131,0.207,0.198,0.207,0.114,0.075,-,CALM,Yes
2023/06/24,23:00,0.144,0.132,0.205,0.199,0.209,0.114,0.075,-,CALM,No
2023/06/24,23:10,0.144,0.132,0.207,0.198,0.207,0.115,0.075,-,CALM,No
2023/06/24,23:20,0.143,0.130,0.206,0.199,0.211,0.114,0.074,-,CALM,No
2023/06/24,23:30,0.143,0.132,0.205,0.198,0.208,0.115,0.075,north,0.9,No
2023/06/24,23:40,0.143,0.131,0.207,0.200,0.208,0.115,0.075,north-northeast,1.0,No
2023/06/24,23:50,0.144,0.132,0.206,0.198,0.210,0.115,0.075,north,1.4,No
